Location: Mason Neck State Park
(38.6428°N, 77.1981°W)
Time: 10:53:44
(UTC-05:00)

Daily predictions for brighter satellites

Satellite Brightness Start Highest point End
(mag) Time Altitude Azimuth Time Altitude Azimuth Time Altitude Azimuth
Cosmos 2082 Rocket 3.9 18:07:05 10° SW 18:12:14 34° WNW 18:17:25 10° N
Cosmos 1484 Rocket 3.0 18:10:47 10° S 18:14:46 79° WSW 18:18:45 10° NNW
SL-16 R/B 2.9 18:12:47 10° N 18:17:50 32° ENE 18:22:52 10° ESE
PSLV R/B 3.8 18:16:50 10° W 18:19:55 52° SSW 18:23:00 10° SE
CENTAUR R/B 3.2 18:12:05 10° NNW 18:20:02 76° NE 18:28:25 10° SE
Cosmos 2360 4.2 18:15:11 10° NNW 18:20:57 75° ENE 18:26:40 10° SSE
ASTRO E2 4.2 18:19:24 10° WSW 18:22:55 29° S 18:26:24 10° ESE
Cosmos 1633 4.4 18:26:26 10° ESE 18:28:10 13° E 18:29:56 10° ENE
NOSS 2-2 (E) 4.0 18:25:02 10° SW 18:29:01 63° NW 18:33:37 10° NNE
SKYMED 2 4.1 18:27:53 10° N 18:32:12 64° WNW 18:36:28 10° SSW
Cosmos 44 Rocket 3.2 18:27:33 10° NNW 18:32:18 69° ENE 18:36:57 10° SE
Cosmos 1975 Rocket 3.0 18:28:06 10° N 18:32:27 84° E 18:36:45 10° S
Cosmos 2322 Rocket 2.4 18:32:01 10° N 18:37:26 46° ENE 18:42:48 10° SE
Okean 1 4.1 18:34:14 10° NNE 18:37:53 31° ENE 18:41:31 10° SE
Cosmos 1340 4.1 18:38:19 10° NNE 18:41:01 18° ENE 18:43:10 12° ESE
Nadezhda 1 Rocket 3.9 18:39:07 10° N 18:45:13 76° E 18:51:17 10° S
Meteor 1-28 Rocket 4.1 18:41:35 10° N 18:45:17 52° WNW 18:48:59 10° SSW
Cosmos 1818 3.9 18:43:47 10° S 18:48:55 44° ESE 18:54:05 10° NE
Tiangong 2 1.7 18:46:20 10° WNW 18:49:17 41° N 18:50:56 21° ENE
Meteor 1-25 Rocket 4.2 18:44:19 10° S 18:49:53 85° E 18:55:34 10° N
Cosmos 1346 Rocket 4.1 18:46:42 10° NNW 18:50:27 43° W 18:54:09 10° SSW
Cosmos 1536 Rocket 4.0 18:47:00 10° N 18:51:12 40° ENE 18:55:24 10° SSE
Resurs 01 Rocket 2.2 18:47:57 10° SE 18:51:55 34° ENE 18:55:54 10° N
Cosmos 2181 Rocket 4.4 18:47:33 10° N 18:53:17 38° ENE 18:59:05 10° SE
DNEPR-1 R/B 3.8 18:50:48 10° NNW 18:54:53 45° NE 18:58:09 15° SE
Helios 1B rocket 3.9 18:56:57 18° ESE 18:56:57 18° ESE 18:59:09 10° SE
COSMOS 2428 4.4 18:53:41 10° NNE 18:56:24 13° NE 18:56:57 13° NE
Meteor 1-11 Rocket 4.3 18:53:31 10° SSE 18:58:38 35° E 19:03:52 10° NNE
Cosmos 44 2.9 18:56:46 10° NNW 19:01:12 83° ENE 19:05:29 10° SSE
H-2A R/B 3.3 18:58:38 15° SE 19:01:12 32° ENE 19:04:33 10° N
FENGYUN 3A 3.7 18:56:44 10° SSE 19:02:01 58° ENE 19:07:20 10° N
DELTA 2 R/B (1) 3.6 18:56:44 10° W 19:02:22 81° N 19:05:58 23° E
deb Kosmos-1763 4.4 19:03:12 10° SSW 19:06:59 71° WNW 19:10:47 10° NNE
Cosmos 1812 3.4 19:08:11 10° NNW 19:11:59 57° W 19:15:45 10° S
Cosmos 676 Rocket 3.9 19:09:31 10° S 19:14:39 70° ESE 19:19:51 10° NNE
Cosmos 407 Rocket 3.6 19:09:49 10° SSW 19:15:02 79° WNW 19:20:22 10° NNE
Cosmos 1709 Rocket 3.9 19:10:17 10° S 19:16:32 78° E 19:22:43 10° N
Resurs 1-3 3.6 19:15:15 10° SSE 19:19:32 57° ENE 19:23:51 10° N
Cosmos 1300 Rocket 3.5 19:19:44 10° S 19:24:04 63° E 19:28:27 10° NNE
ATLAS 2A CENTAUR R/B 3.8 19:24:51 10° SSW 19:27:24 18° SSE 19:29:17 16° SE
Cosmos 2360 Rocket 2.4 19:25:33 10° NNW 19:31:02 49° ENE 19:32:44 38° ESE
Cosmos 1602 3.6 19:29:31 10° S 19:33:22 89° E 19:37:17 10° N
Cosmos 2219 Rocket 4.1 19:31:54 10° NNE 19:33:20 13° NNE 19:33:20 13° NNE
SAR-Lupe-4 4.0 19:36:35 47° NNE 19:36:35 47° NNE 19:39:18 10° N
ALOS 3.0 19:36:46 10° S 19:41:19 52° W 19:45:53 10° NNW
TSX-5 4.0 19:41:56 10° SW 19:44:47 52° W 19:44:47 52° W
Cosmos 1140 Rocket 3.3 19:40:43 10° SSW 19:45:50 82° ESE 19:49:24 20° NNE
Cosmos 1833 4.2 19:40:27 10° SSW 19:46:11 86° WNW 19:51:45 11° NNE
Cosmos 1238 Rocket 4.3 19:45:28 10° NNW 19:46:37 20° NNW 19:46:37 20° NNW
Spot 1 3.9 19:49:08 69° N 19:49:08 69° N 19:52:46 10° NNW
Spot 2 Rocket 3.9 19:44:03 10° S 19:49:01 63° WSW 19:54:04 10° NNW
Okean 1 Rocket 3.0 19:46:26 10° S 19:50:55 85° W 19:55:26 10° N
Cosmos 2333 Rocket 4.2 19:48:45 10° N 19:50:09 14° NNE 19:50:09 14° NNE
Gbstr 26 Del rocket 4.2 19:48:48 10° SSW 19:50:41 26° SSW 19:50:41 26° SSW
Cosmos 1461 3.6 19:52:02 10° NW 19:55:55 50° WSW 19:56:31 45° SSW
Cosmos 1850 Rocket 4.3 19:50:48 10° S 19:54:47 49° SSE 19:54:47 49° SSE
Meteor 1-19 Rocket 4.3 19:51:49 10° NNW 19:57:28 76° W 20:03:11 10° S
Helios 1A 3.4 20:02:04 58° NW 20:02:04 58° NW 20:05:32 10° NNW
SL-16 R/B 3.7 19:56:50 10° NW 20:01:54 34° WSW 20:06:56 10° SSW
Cosmos 1633 4.4 19:59:30 10° SW 20:02:50 32° WNW 20:06:10 10° NNW
Cosmos 614 Rocket 3.8 19:57:46 10° SSW 20:02:46 86° SSE 20:02:46 86° SSE
Envisat 4.2 20:07:28 30° N 20:07:28 30° N 20:10:07 10° N
ATLAS CENTAUR R/B 4.5 20:03:58 10° SSW 20:04:45 13° S 20:04:45 13° S
USA 229 DEB 4.4 20:04:22 10° NNW 20:10:23 38° NE 20:10:23 38° NE
USA 229 4.4 20:04:28 10° NNW 20:10:27 38° NE 20:10:27 38° NE
Cosmos 2322 Rocket 4.4 20:16:52 10° NW 20:21:05 22° W 20:25:19 10° SSW
Meteor 1-23 Rocket 4.4 20:20:42 10° NNW 20:26:15 73° WNW 20:26:15 73° WNW
Resurs 01 Rocket 4.1 20:25:14 10° SW 20:28:27 20° W 20:31:41 10° NW
Cosmos 2322 4.1 20:25:04 10° NNW 20:30:39 60° WSW 20:30:39 60° WSW
COSMOS 2428 3.9 20:35:48 10° NNW 20:39:00 35° NNW 20:39:00 35° NNW
BREEZE-M DEB (TANK) 4.5 20:41:54 10° NW 20:44:45 55° NW 20:44:45 55° NW
Cosmos 2360 Rocket 4.3 21:10:28 10° NW 21:14:35 21° W 21:14:35 21° W
